INTELSAT 28 (IS-28)

Last updated on Mon Dec 15 2025 00:02:54 GMT+0000 (Coordinated Universal Time)

1 37392U 11016A 25348.26745008 -.00000207 00000+0 00000+0 0 9995 2 37392 1.3286 85.0389 0003712 182.7746 239.9780 1.00272925 51436
UTC large
Height (km)
Speed (km/s)
/
Latitude / Longitude
Inclination (degrees)
Orbital Period (minutes)
Azimuth
Elevation
Range (km)
Doppler Factor

Next 0 passes for location: London (51.5072 / 0.1276)

Sorry there are no passes over London.